Time,TemperatureF,DewpointF,PressureIn,WindDirection,WindDirectionDegrees,WindSpeedMPH,WindSpeedGustMPH,Humidity,HourlyPrecipIn,Conditions,Clouds,dailyrainin,SoftwareType,DateUTC
2014-11-24 00:12:00,44.0,37.0,30.06,WSW,237,0.0,1.0,75,0.10,,,3.80,,2014-11-24 05:12:00,
2014-11-24 00:22:00,44.0,37.0,30.06,WSW,237,0.0,1.0,75,0.10,,,3.80,,2014-11-24 05:22:00,
2014-11-24 00:42:00,44.0,37.0,30.05,WSW,251,0.0,1.0,77,0.10,,,3.80,,2014-11-24 05:42:00,
2014-11-24 00:53:00,44.0,37.0,30.05,WSW,251,0.0,1.0,77,0.10,,,3.80,,2014-11-24 05:53:00,
2014-11-24 01:13:00,44.0,38.0,30.04,WSW,248,0.0,1.0,79,0.10,,,3.90,,2014-11-24 06:13:00,
2014-11-24 01:22:00,44.0,38.0,30.04,WSW,248,0.0,1.0,79,0.10,,,3.90,,2014-11-24 06:22:00,
2014-11-24 01:42:00,45.0,40.0,30.04,WSW,248,0.0,1.0,81,0.10,,,3.80,,2014-11-24 06:42:00,
2014-11-24 01:52:00,45.0,40.0,30.04,WSW,248,0.0,1.0,81,0.10,,,3.80,,2014-11-24 06:52:00,
2014-11-24 02:12:00,44.0,39.0,30.03,WSW,248,0.0,0.0,83,0.10,,,3.90,,2014-11-24 07:12:00,
2014-11-24 02:22:00,44.0,39.0,30.03,WSW,248,0.0,0.0,83,0.10,,,3.90,,2014-11-24 07:22:00,
2014-11-24 02:42:00,44.0,39.0,30.02,WSW,248,0.0,0.0,84,0.10,,,3.80,,2014-11-24 07:42:00,
2014-11-24 02:53:00,44.0,39.0,30.02,WSW,248,0.0,0.0,84,0.10,,,3.80,,2014-11-24 07:53:00,
2014-11-24 03:12:00,45.0,42.0,30.01,WSW,248,0.0,0.0,88,0.00,,,3.80,,2014-11-24 08:12:00,
2014-11-24 03:22:00,45.0,42.0,30.01,WSW,248,0.0,0.0,88,0.00,,,3.80,,2014-11-24 08:22:00,
2014-11-24 03:42:00,46.0,44.0,29.98,WSW,248,0.0,1.0,91,0.10,,,3.80,,2014-11-24 08:42:00,
2014-11-24 03:52:00,46.0,44.0,29.98,WSW,248,0.0,1.0,91,0.10,,,3.80,,2014-11-24 08:52:00,
2014-11-24 04:12:00,48.0,46.0,29.96,WSW,241,0.0,1.0,92,0.10,,,3.70,,2014-11-24 09:12:00,
2014-11-24 04:22:00,48.0,46.0,29.96,WSW,241,0.0,1.0,92,0.10,,,3.70,,2014-11-24 09:22:00,
2014-11-24 04:43:00,50.0,48.0,29.93,South,186,0.0,5.0,93,0.00,,,3.60,,2014-11-24 09:43:00,
2014-11-24 04:53:00,50.0,48.0,29.93,South,186,0.0,5.0,93,0.00,,,3.60,,2014-11-24 09:53:00,
2014-11-24 05:13:00,52.0,50.0,29.93,SW,233,0.0,2.0,92,0.10,,,3.70,,2014-11-24 10:13:00,
2014-11-24 05:24:00,52.0,50.0,29.93,SW,233,0.0,2.0,92,0.10,,,3.70,,2014-11-24 10:24:00,
2014-11-24 05:43:00,53.0,51.0,29.90,WSW,240,0.0,5.0,93,0.10,,,3.60,,2014-11-24 10:43:00,
2014-11-24 05:53:00,53.0,51.0,29.90,WSW,240,0.0,5.0,93,0.10,,,3.60,,2014-11-24 10:53:00,
2014-11-24 06:12:00,54.0,52.0,29.87,SSW,200,1.0,5.0,93,0.00,,,3.50,,2014-11-24 11:12:00,
2014-11-24 06:22:00,54.0,52.0,29.87,SSW,200,1.0,5.0,93,0.00,,,3.50,,2014-11-24 11:22:00,
2014-11-24 06:43:00,55.0,53.0,29.87,SSW,212,2.0,7.0,92,0.10,,,3.60,,2014-11-24 11:43:00,
2014-11-24 06:53:00,55.0,53.0,29.87,SSW,212,2.0,7.0,92,0.10,,,3.60,,2014-11-24 11:53:00,
2014-11-24 07:12:00,56.0,54.0,29.84,SSW,199,1.0,7.0,93,0.10,,,3.50,,2014-11-24 12:12:00,
2014-11-24 07:23:00,56.0,54.0,29.84,SSW,199,1.0,7.0,93,0.10,,,3.50,,2014-11-24 12:23:00,
2014-11-24 07:42:00,56.0,54.0,29.83,SSW,209,1.0,6.0,93,0.00,,,3.50,,2014-11-24 12:42:00,
2014-11-24 07:52:00,56.0,54.0,29.83,SSW,209,1.0,6.0,93,0.00,,,3.50,,2014-11-24 12:52:00,
2014-11-24 08:12:00,57.0,55.0,29.75,South,182,3.0,8.0,94,0.10,,,3.50,,2014-11-24 13:12:00,
2014-11-24 08:22:00,57.0,55.0,29.75,South,182,3.0,8.0,94,0.10,,,3.50,,2014-11-24 13:22:00,
2014-11-24 08:42:00,59.0,57.0,29.75,SSW,204,2.0,16.0,94,0.20,,,3.50,,2014-11-24 13:42:00,
2014-11-24 08:53:00,59.0,57.0,29.75,SSW,204,2.0,16.0,94,0.20,,,3.50,,2014-11-24 13:53:00,
2014-11-24 09:12:00,60.0,58.0,29.72,SSW,200,3.0,13.0,94,0.10,,,3.50,,2014-11-24 14:12:00,
2014-11-24 09:22:00,60.0,58.0,29.72,SSW,200,3.0,13.0,94,0.10,,,3.50,,2014-11-24 14:22:00,
2014-11-24 09:42:00,60.0,58.0,29.70,SSW,197,1.0,10.0,93,0.10,,,3.50,,2014-11-24 14:42:00,
2014-11-24 09:53:00,60.0,58.0,29.70,SSW,197,1.0,10.0,93,0.10,,,3.50,,2014-11-24 14:53:00,
2014-11-24 10:12:00,60.0,58.0,29.69,SW,223,3.0,12.0,94,0.10,,,3.40,,2014-11-24 15:12:00,
2014-11-24 10:23:00,60.0,58.0,29.69,SW,223,3.0,12.0,94,0.10,,,3.40,,2014-11-24 15:23:00,
2014-11-24 10:43:00,61.0,59.0,29.68,SW,229,1.0,8.0,94,0.10,,,3.40,,2014-11-24 15:43:00,
2014-11-24 10:54:00,61.0,59.0,29.68,SW,229,1.0,8.0,94,0.10,,,3.40,,2014-11-24 15:54:00,
2014-11-24 11:13:00,62.0,60.0,29.66,WSW,254,1.0,10.0,94,0.10,,,3.30,,2014-11-24 16:13:00,
2014-11-24 11:24:00,62.0,60.0,29.66,WSW,254,1.0,10.0,94,0.10,,,3.30,,2014-11-24 16:24:00,
2014-11-24 11:43:00,63.0,61.0,29.65,SW,233,1.0,12.0,94,0.10,,,3.30,,2014-11-24 16:43:00,
2014-11-24 11:53:00,63.0,61.0,29.65,SW,233,1.0,12.0,94,0.10,,,3.30,,2014-11-24 16:53:00,
2014-11-24 12:13:00,63.0,61.0,29.64,SW,225,2.0,13.0,94,0.20,,,3.30,,2014-11-24 17:13:00,
2014-11-24 12:23:00,63.0,61.0,29.64,SW,225,2.0,13.0,94,0.20,,,3.30,,2014-11-24 17:23:00,
2014-11-24 12:43:00,63.0,61.0,29.62,WSW,241,3.0,13.0,94,0.10,,,3.10,,2014-11-24 17:43:00,
2014-11-24 12:53:00,63.0,61.0,29.62,WSW,241,3.0,13.0,94,0.10,,,3.10,,2014-11-24 17:53:00,
2014-11-24 13:13:00,64.0,62.0,29.61,SW,229,1.0,12.0,94,0.00,,,3.10,,2014-11-24 18:13:00,
2014-11-24 13:23:00,64.0,62.0,29.61,SW,229,1.0,12.0,94,0.00,,,3.10,,2014-11-24 18:23:00,
2014-11-24 13:44:00,64.0,62.0,29.60,SSE,165,1.0,10.0,94,0.10,,,3.00,,2014-11-24 18:44:00,
2014-11-24 13:55:00,64.0,62.0,29.60,SSE,165,1.0,10.0,94,0.10,,,3.00,,2014-11-24 18:55:00,
2014-11-24 14:12:00,64.0,62.0,29.59,WSW,238,5.0,13.0,93,0.10,,,2.90,,2014-11-24 19:12:00,
2014-11-24 14:22:00,64.0,62.0,29.59,WSW,238,5.0,13.0,93,0.10,,,2.90,,2014-11-24 19:22:00,
2014-11-24 14:42:00,64.0,62.0,29.58,WSW,239,3.0,13.0,92,0.10,,,2.90,,2014-11-24 19:42:00,
2014-11-24 14:52:00,64.0,62.0,29.58,WSW,239,3.0,13.0,92,0.10,,,2.90,,2014-11-24 19:52:00,